Overview Statistics Trail Chart Weather Telemetry Raw packets
 

This is the latest recevied weather packets stored in our database for station/object G4WLC-1. If no packets are shown the sender has not sent any weather packets the latest 10 day(s).

<< 18 19 20 21 22 23 24 >>
Time Temp. Humidity Pressure Rain* Wind** Luminosity Snow
1788533521 18.33° C 73% 1016.5 hPa 0 mm - - -
1788533221 18.33° C 72% 1016.2 hPa 0 mm - - -
1788532921 17.78° C 73% 1016.2 hPa 0 mm - - -
1788532621 17.78° C 72% 1016.3 hPa 0 mm - - -
1788532321 17.78° C 73% 1016.3 hPa 0 mm - - -
1788532021 17.78° C 71% 1016.2 hPa 0 mm - - -
1788531721 17.78° C 73% 1016.1 hPa 0 mm - - -
1788531421 18.33° C 72% 1016.1 hPa 0 mm - - -
1788531121 17.78° C 71% 1016.1 hPa 0 mm - - -
1788530821 17.78° C 71% 1016 hPa 0 mm - - -
1788530521 18.33° C 72% 1016.1 hPa 0 mm - - -
1788530221 17.78° C 72% 1016 hPa 0 mm - - -
1788529921 17.78° C 70% 1016 hPa 0 mm - - -
1788529622 18.33° C 70% 1016 hPa 0 mm - - -
1788529321 18.33° C 72% 1015.9 hPa 0 mm - - -
1788529021 18.33° C 70% 1015.8 hPa 0 mm - - -
1788528722 18.33° C 71% 1015.8 hPa 0 mm - - -
1788528422 18.33° C 71% 1015.7 hPa 0 mm - - -
1788528122 17.78° C 71% 1015.8 hPa 0 mm - - -
1788527822 17.78° C 71% 1015.7 hPa 0 mm - - -
1788527522 17.78° C 70% 1015.7 hPa 0 mm - - -
1788527222 17.78° C 69% 1015.8 hPa 0 mm - - -
1788526922 17.78° C 70% 1015.9 hPa 0 mm - - -
1788526622 17.78° C 74% 1015.7 hPa 0 mm - - -
1788526322 17.78° C 72% 1015.8 hPa 0 mm - - -

* Rain latest hour (hover to see other rain measurements)
** Current wind speed in m/s (hover to see current wind gust speed)